owner,sensor,date,latitude,longitude,relative_humidity,qcFlag 
DISL,ioos:station:DISL:KATA:1,2017-03-01T00:00:00Z,30.2583,-88.2131,111.9,1111122 
DISL,ioos:station:DISL:KATA:1,2017-03-01T00:30:00Z,30.2583,-88.2131,112.0,1111122 
DISL,ioos:station:DISL:KATA:1,2017-03-01T01:00:00Z,30.2583,-88.2131,112.0,1111122 
DISL,ioos:station:DISL:KATA:1,2017-03-01T01:30:00Z,30.2583,-88.2131,111.8,1111122 
DISL,ioos:station:DISL:KATA:1,2017-03-01T02:00:00Z,30.2583,-88.2131,112.0,1111122 
DISL,ioos:station:DISL:KATA:1,2017-03-01T02:30:00Z,30.2583,-88.2131,112.0,1111122 
DISL,ioos:station:DISL:KATA:1,2017-03-01T03:00:00Z,30.2583,-88.2131,112.4,1111122 
DISL,ioos:station:DISL:KATA:1,2017-03-01T03:30:00Z,30.2583,-88.2131,114.0,1111122 
DISL,ioos:station:DISL:KATA:1,2017-03-01T04:00:00Z,30.2583,-88.2131,113.6,1111122 
DISL,ioos:station:DISL:KATA:1,2017-03-01T04:30:00Z,30.2583,-88.2131,113.2,1111122 
DISL,ioos:station:DISL:KATA:1,2017-03-01T05:00:00Z,30.2583,-88.2131,112.8,1111122 
DISL,ioos:station:DISL:KATA:1,2017-03-01T05:30:00Z,30.2583,-88.2131,113.0,1111122 
DISL,ioos:station:DISL:KATA:1,2017-03-01T06:00:00Z,30.2583,-88.2131,113.5,1111122 
DISL,ioos:station:DISL:KATA:1,2017-03-01T06:30:00Z,30.2583,-88.2131,113.6,1111122 
DISL,ioos:station:DISL:KATA:1,2017-03-01T07:00:00Z,30.2583,-88.2131,113.8,1111122 
DISL,ioos:station:DISL:KATA:1,2017-03-01T07:30:00Z,30.2583,-88.2131,113.9,1111122 
DISL,ioos:station:DISL:KATA:1,2017-03-01T08:00:00Z,30.2583,-88.2131,113.8,1111122 
DISL,ioos:station:DISL:KATA:1,2017-03-01T08:30:00Z,30.2583,-88.2131,113.8,1111122 
DISL,ioos:station:DISL:KATA:1,2017-03-01T09:00:00Z,30.2583,-88.2131,114.1,1111122 
DISL,ioos:station:DISL:KATA:1,2017-03-01T09:30:00Z,30.2583,-88.2131,115.1,1111122 
DISL,ioos:station:DISL:KATA:1,2017-03-01T10:00:00Z,30.2583,-88.2131,115.1,1111122 
DISL,ioos:station:DISL:KATA:1,2017-03-01T10:30:00Z,30.2583,-88.2131,114.9,1111122 
DISL,ioos:station:DISL:KATA:1,2017-03-01T11:00:00Z,30.2583,-88.2131,114.1,1111122 
DISL,ioos:station:DISL:KATA:1,2017-03-01T11:30:00Z,30.2583,-88.2131,115.1,1111122 
DISL,ioos:station:DISL:KATA:1,2017-03-01T12:00:00Z,30.2583,-88.2131,114.1,1111122 
DISL,ioos:station:DISL:KATA:1,2017-03-01T12:30:00Z,30.2583,-88.2131,113.7,1111122 
DISL,ioos:station:DISL:KATA:1,2017-03-01T13:00:00Z,30.2583,-88.2131,113.4,1111122 
DISL,ioos:station:DISL:KATA:1,2017-03-01T13:30:00Z,30.2583,-88.2131,113.6,1111122 
DISL,ioos:station:DISL:KATA:1,2017-03-01T14:00:00Z,30.2583,-88.2131,113.2,1111122 
DISL,ioos:station:DISL:KATA:1,2017-03-01T14:30:00Z,30.2583,-88.2131,112.8,1111122 
DISL,ioos:station:DISL:KATA:1,2017-03-01T15:00:00Z,30.2583,-88.2131,113.7,1111122 
DISL,ioos:station:DISL:KATA:1,2017-03-01T15:30:00Z,30.2583,-88.2131,114.6,1111122 
DISL,ioos:station:DISL:KATA:1,2017-03-01T16:00:00Z,30.2583,-88.2131,115.4,1111122 
DISL,ioos:station:DISL:KATA:1,2017-03-01T16:30:00Z,30.2583,-88.2131,116.7,1111122 
DISL,ioos:station:DISL:KATA:1,2017-03-01T17:00:00Z,30.2583,-88.2131,117.8,1111122 
DISL,ioos:station:DISL:KATA:1,2017-03-01T17:30:00Z,30.2583,-88.2131,118.3,1111122 
DISL,ioos:station:DISL:KATA:1,2017-03-01T18:00:00Z,30.2583,-88.2131,120.1,1111122 
DISL,ioos:station:DISL:KATA:1,2017-03-01T18:30:00Z,30.2583,-88.2131,120.8,1111122 
DISL,ioos:station:DISL:KATA:1,2017-03-01T19:00:00Z,30.2583,-88.2131,121.5,1111122 
DISL,ioos:station:DISL:KATA:1,2017-03-01T19:30:00Z,30.2583,-88.2131,121.5,1111122 
DISL,ioos:station:DISL:KATA:1,2017-03-01T20:00:00Z,30.2583,-88.2131,122.4,1111122 
DISL,ioos:station:DISL:KATA:1,2017-03-01T20:30:00Z,30.2583,-88.2131,123.0,1111122 
DISL,ioos:station:DISL:KATA:1,2017-03-01T21:00:00Z,30.2583,-88.2131,123.9,1111122 
DISL,ioos:station:DISL:KATA:1,2017-03-01T21:30:00Z,30.2583,-88.2131,124.3,1111122 
DISL,ioos:station:DISL:KATA:1,2017-03-01T22:00:00Z,30.2583,-88.2131,124.9,1111122 
DISL,ioos:station:DISL:KATA:1,2017-03-01T22:30:00Z,30.2583,-88.2131,125.2,1111122 
DISL,ioos:station:DISL:KATA:1,2017-03-01T23:00:00Z,30.2583,-88.2131,125.6,1111122 
DISL,ioos:station:DISL:KATA:1,2017-03-01T23:30:00Z,30.2583,-88.2131,125.7,1111122 
DISL,ioos:station:DISL:KATA:1,2017-03-02T00:00:00Z,30.2583,-88.2131,125.6,1111122 
DISL,ioos:station:DISL:KATA:1,2017-03-02T00:30:00Z,30.2583,-88.2131,125.6,1111122 
DISL,ioos:station:DISL:KATA:1,2017-03-02T01:00:00Z,30.2583,-88.2131,125.3,1111122 
DISL,ioos:station:DISL:KATA:1,2017-03-02T01:30:00Z,30.2583,-88.2131,124.6,1111122 
DISL,ioos:station:DISL:KATA:1,2017-03-02T02:00:00Z,30.2583,-88.2131,124.1,1111122 
DISL,ioos:station:DISL:KATA:1,2017-03-02T02:30:00Z,30.2583,-88.2131,123.6,1111122 
DISL,ioos:station:DISL:KATA:1,2017-03-02T03:00:00Z,30.2583,-88.2131,123.5,1111122 
DISL,ioos:station:DISL:KATA:1,2017-03-02T03:30:00Z,30.2583,-88.2131,123.3,1111122 
DISL,ioos:station:DISL:KATA:1,2017-03-02T04:00:00Z,30.2583,-88.2131,114.8,1111122 
DISL,ioos:station:DISL:KATA:1,2017-03-02T04:30:00Z,30.2583,-88.2131,109.6,1111122 
DISL,ioos:station:DISL:KATA:1,2017-03-02T05:00:00Z,30.2583,-88.2131,97.1,1111122 
DISL,ioos:station:DISL:KATA:1,2017-03-02T05:30:00Z,30.2583,-88.2131,97.6,1111122 
DISL,ioos:station:DISL:KATA:1,2017-03-02T06:00:00Z,30.2583,-88.2131,97.2,1111122 
DISL,ioos:station:DISL:KATA:1,2017-03-02T06:30:00Z,30.2583,-88.2131,97.5,1111122 
DISL,ioos:station:DISL:KATA:1,2017-03-02T07:00:00Z,30.2583,-88.2131,94.7,1111122 
DISL,ioos:station:DISL:KATA:1,2017-03-02T07:30:00Z,30.2583,-88.2131,87.6,1111122 
DISL,ioos:station:DISL:KATA:1,2017-03-02T08:00:00Z,30.2583,-88.2131,79.41,1111122 
DISL,ioos:station:DISL:KATA:1,2017-03-02T08:30:00Z,30.2583,-88.2131,63.94,1111122 
DISL,ioos:station:DISL:KATA:1,2017-03-02T09:00:00Z,30.2583,-88.2131,65.14,1111122 
DISL,ioos:station:DISL:KATA:1,2017-03-02T09:30:00Z,30.2583,-88.2131,66.26,1111122 
DISL,ioos:station:DISL:KATA:1,2017-03-02T10:00:00Z,30.2583,-88.2131,64.32,1111122 
DISL,ioos:station:DISL:KATA:1,2017-03-02T10:30:00Z,30.2583,-88.2131,60.18,1111122 
DISL,ioos:station:DISL:KATA:1,2017-03-02T11:00:00Z,30.2583,-88.2131,60.49,1111122 
DISL,ioos:station:DISL:KATA:1,2017-03-02T11:30:00Z,30.2583,-88.2131,53.73,1111122 
DISL,ioos:station:DISL:KATA:1,2017-03-02T12:00:00Z,30.2583,-88.2131,51.05,1111122 
DISL,ioos:station:DISL:KATA:1,2017-03-02T12:30:00Z,30.2583,-88.2131,46.88,1111122 
DISL,ioos:station:DISL:KATA:1,2017-03-02T13:00:00Z,30.2583,-88.2131,51.02,1111122 
DISL,ioos:station:DISL:KATA:1,2017-03-02T13:30:00Z,30.2583,-88.2131,58.18,1111122 
DISL,ioos:station:DISL:KATA:1,2017-03-02T14:00:00Z,30.2583,-88.2131,65.75,1111122 
DISL,ioos:station:DISL:KATA:1,2017-03-02T14:30:00Z,30.2583,-88.2131,57.98,1111122 
DISL,ioos:station:DISL:KATA:1,2017-03-02T15:00:00Z,30.2583,-88.2131,50.78,1111122 
DISL,ioos:station:DISL:KATA:1,2017-03-02T15:30:00Z,30.2583,-88.2131,55.06,1111122 
DISL,ioos:station:DISL:KATA:1,2017-03-02T16:00:00Z,30.2583,-88.2131,49.93,1111122 
DISL,ioos:station:DISL:KATA:1,2017-03-02T16:30:00Z,30.2583,-88.2131,43.28,1111122 
DISL,ioos:station:DISL:KATA:1,2017-03-02T17:00:00Z,30.2583,-88.2131,50.2,1111122 
DISL,ioos:station:DISL:KATA:1,2017-03-02T17:30:00Z,30.2583,-88.2131,54.82,1111122 
DISL,ioos:station:DISL:KATA:1,2017-03-02T18:00:00Z,30.2583,-88.2131,45.18,1111122 
DISL,ioos:station:DISL:KATA:1,2017-03-02T18:30:00Z,30.2583,-88.2131,43.18,1111122 
DISL,ioos:station:DISL:KATA:1,2017-03-02T19:00:00Z,30.2583,-88.2131,51.11,1111122 
DISL,ioos:station:DISL:KATA:1,2017-03-02T19:30:00Z,30.2583,-88.2131,51.25,1111122 
DISL,ioos:station:DISL:KATA:1,2017-03-02T20:00:00Z,30.2583,-88.2131,49.59,1111122 
DISL,ioos:station:DISL:KATA:1,2017-03-02T20:30:00Z,30.2583,-88.2131,39.13,1111122 
DISL,ioos:station:DISL:KATA:1,2017-03-02T21:00:00Z,30.2583,-88.2131,40.8,1111122 
DISL,ioos:station:DISL:KATA:1,2017-03-02T21:30:00Z,30.2583,-88.2131,51.15,1111122 
DISL,ioos:station:DISL:KATA:1,2017-03-02T22:00:00Z,30.2583,-88.2131,44.97,1111122 
DISL,ioos:station:DISL:KATA:1,2017-03-02T22:30:00Z,30.2583,-88.2131,41.4,1111122 
DISL,ioos:station:DISL:KATA:1,2017-03-02T23:00:00Z,30.2583,-88.2131,44.42,1111122 
DISL,ioos:station:DISL:KATA:1,2017-03-02T23:30:00Z,30.2583,-88.2131,43.2,1111122 
DISL,ioos:station:DISL:KATA:1,2017-03-03T00:00:00Z,30.2583,-88.2131,40.42,1111122 
DISL,ioos:station:DISL:KATA:1,2017-03-03T00:30:00Z,30.2583,-88.2131,45.45,1111122 
DISL,ioos:station:DISL:KATA:1,2017-03-03T01:00:00Z,30.2583,-88.2131,45.11,1111122 
DISL,ioos:station:DISL:KATA:1,2017-03-03T01:30:00Z,30.2583,-88.2131,42.33,1111122 
DISL,ioos:station:DISL:KATA:1,2017-03-03T02:00:00Z,30.2583,-88.2131,51.43,1111122 
DISL,ioos:station:DISL:KATA:1,2017-03-03T02:30:00Z,30.2583,-88.2131,47.08,1111122 
DISL,ioos:station:DISL:KATA:1,2017-03-03T03:00:00Z,30.2583,-88.2131,52.04,1111122 
DISL,ioos:station:DISL:KATA:1,2017-03-03T03:30:00Z,30.2583,-88.2131,49.93,1111122 
DISL,ioos:station:DISL:KATA:1,2017-03-03T04:00:00Z,30.2583,-88.2131,54.38,1111122 
DISL,ioos:station:DISL:KATA:1,2017-03-03T04:30:00Z,30.2583,-88.2131,53.02,1111122 
DISL,ioos:station:DISL:KATA:1,2017-03-03T05:00:00Z,30.2583,-88.2131,56.77,1111122 
DISL,ioos:station:DISL:KATA:1,2017-03-03T05:30:00Z,30.2583,-88.2131,50.69,1111122 
DISL,ioos:station:DISL:KATA:1,2017-03-03T06:00:00Z,30.2583,-88.2131,52.59,1111122 
DISL,ioos:station:DISL:KATA:1,2017-03-03T06:30:00Z,30.2583,-88.2131,53.44,1111122 
DISL,ioos:station:DISL:KATA:1,2017-03-03T07:00:00Z,30.2583,-88.2131,58.74,1111122 
DISL,ioos:station:DISL:KATA:1,2017-03-03T07:30:00Z,30.2583,-88.2131,50.46,1111122 
DISL,ioos:station:DISL:KATA:1,2017-03-03T08:00:00Z,30.2583,-88.2131,54.74,1111122 
DISL,ioos:station:DISL:KATA:1,2017-03-03T08:30:00Z,30.2583,-88.2131,58.13,1111122 
DISL,ioos:station:DISL:KATA:1,2017-03-03T09:00:00Z,30.2583,-88.2131,62.75,1111122 
DISL,ioos:station:DISL:KATA:1,2017-03-03T09:30:00Z,30.2583,-88.2131,60.71,1111122 
DISL,ioos:station:DISL:KATA:1,2017-03-03T10:00:00Z,30.2583,-88.2131,58.27,1111122 
DISL,ioos:station:DISL:KATA:1,2017-03-03T10:30:00Z,30.2583,-88.2131,59.93,1111122 
DISL,ioos:station:DISL:KATA:1,2017-03-03T11:00:00Z,30.2583,-88.2131,68.32,1111122 
DISL,ioos:station:DISL:KATA:1,2017-03-03T11:30:00Z,30.2583,-88.2131,63.6,1111122 
DISL,ioos:station:DISL:KATA:1,2017-03-03T12:00:00Z,30.2583,-88.2131,64.31,1111122 
DISL,ioos:station:DISL:KATA:1,2017-03-03T12:30:00Z,30.2583,-88.2131,66.49,1111122 
DISL,ioos:station:DISL:KATA:1,2017-03-03T13:00:00Z,30.2583,-88.2131,57.83,1111122 
DISL,ioos:station:DISL:KATA:1,2017-03-03T13:30:00Z,30.2583,-88.2131,56.64,1111122 
DISL,ioos:station:DISL:KATA:1,2017-03-03T14:00:00Z,30.2583,-88.2131,59.01,1111122 
DISL,ioos:station:DISL:KATA:1,2017-03-03T14:30:00Z,30.2583,-88.2131,60.46,1111122 
DISL,ioos:station:DISL:KATA:1,2017-03-03T15:00:00Z,30.2583,-88.2131,60.93,1111122 
DISL,ioos:station:DISL:KATA:1,2017-03-03T15:30:00Z,30.2583,-88.2131,54.28,1111122 
DISL,ioos:station:DISL:KATA:1,2017-03-03T16:00:00Z,30.2583,-88.2131,56.35,1111122 
DISL,ioos:station:DISL:KATA:1,2017-03-03T16:30:00Z,30.2583,-88.2131,49.93,1111122 
DISL,ioos:station:DISL:KATA:1,2017-03-03T17:00:00Z,30.2583,-88.2131,49.08,1111122 
DISL,ioos:station:DISL:KATA:1,2017-03-03T17:30:00Z,30.2583,-88.2131,40.8,1111122 
DISL,ioos:station:DISL:KATA:1,2017-03-03T18:00:00Z,30.2583,-88.2131,39.74,1111122 
DISL,ioos:station:DISL:KATA:1,2017-03-03T18:30:00Z,30.2583,-88.2131,32.92,1111122 
DISL,ioos:station:DISL:KATA:1,2017-03-03T19:00:00Z,30.2583,-88.2131,41.81,1111122 
DISL,ioos:station:DISL:KATA:1,2017-03-03T19:30:00Z,30.2583,-88.2131,34.17,1111122 
DISL,ioos:station:DISL:KATA:1,2017-03-03T20:00:00Z,30.2583,-88.2131,40.41,1111122 
DISL,ioos:station:DISL:KATA:1,2017-03-03T20:30:00Z,30.2583,-88.2131,34.98,1111122 
DISL,ioos:station:DISL:KATA:1,2017-03-03T21:00:00Z,30.2583,-88.2131,36.92,1111122 
DISL,ioos:station:DISL:KATA:1,2017-03-03T21:30:00Z,30.2583,-88.2131,39.36,1111122 
DISL,ioos:station:DISL:KATA:1,2017-03-03T22:00:00Z,30.2583,-88.2131,37.39,1111122 
DISL,ioos:station:DISL:KATA:1,2017-03-03T22:30:00Z,30.2583,-88.2131,45.84,1111122 
DISL,ioos:station:DISL:KATA:1,2017-03-03T23:00:00Z,30.2583,-88.2131,35.19,1111122 
DISL,ioos:station:DISL:KATA:1,2017-03-03T23:30:00Z,30.2583,-88.2131,42.82,1111122 
DISL,ioos:station:DISL:KATA:1,2017-03-04T00:00:00Z,30.2583,-88.2131,40.28,1111122 
DISL,ioos:station:DISL:KATA:1,2017-03-04T00:30:00Z,30.2583,-88.2131,51.04,1111122 
DISL,ioos:station:DISL:KATA:1,2017-03-04T01:00:00Z,30.2583,-88.2131,49.66,1111122 
DISL,ioos:station:DISL:KATA:1,2017-03-04T01:30:00Z,30.2583,-88.2131,44.26,1111122 
DISL,ioos:station:DISL:KATA:1,2017-03-04T02:00:00Z,30.2583,-88.2131,49.05,1111122 
DISL,ioos:station:DISL:KATA:1,2017-03-04T02:30:00Z,30.2583,-88.2131,52.0,1111122 
DISL,ioos:station:DISL:KATA:1,2017-03-04T03:00:00Z,30.2583,-88.2131,50.48,1111122 
DISL,ioos:station:DISL:KATA:1,2017-03-04T03:30:00Z,30.2583,-88.2131,53.7,1111122 
DISL,ioos:station:DISL:KATA:1,2017-03-04T04:00:00Z,30.2583,-88.2131,48.98,1111122 
DISL,ioos:station:DISL:KATA:1,2017-03-04T04:30:00Z,30.2583,-88.2131,48.71,1111122 
DISL,ioos:station:DISL:KATA:1,2017-03-04T05:00:00Z,30.2583,-88.2131,50.03,1111122 
DISL,ioos:station:DISL:KATA:1,2017-03-04T05:30:00Z,30.2583,-88.2131,46.03,1111122 
DISL,ioos:station:DISL:KATA:1,2017-03-04T06:00:00Z,30.2583,-88.2131,46.88,1111122 
DISL,ioos:station:DISL:KATA:1,2017-03-04T06:30:00Z,30.2583,-88.2131,45.99,1111122 
DISL,ioos:station:DISL:KATA:1,2017-03-04T07:00:00Z,30.2583,-88.2131,41.07,1111122 
DISL,ioos:station:DISL:KATA:1,2017-03-04T07:30:00Z,30.2583,-88.2131,45.96,1111122 
DISL,ioos:station:DISL:KATA:1,2017-03-04T08:00:00Z,30.2583,-88.2131,47.05,1111122 
DISL,ioos:station:DISL:KATA:1,2017-03-04T08:30:00Z,30.2583,-88.2131,47.62,1111122 
DISL,ioos:station:DISL:KATA:1,2017-03-04T09:00:00Z,30.2583,-88.2131,52.41,1111122 
DISL,ioos:station:DISL:KATA:1,2017-03-04T09:30:00Z,30.2583,-88.2131,52.48,1111122 
DISL,ioos:station:DISL:KATA:1,2017-03-04T10:00:00Z,30.2583,-88.2131,48.38,1111122 
DISL,ioos:station:DISL:KATA:1,2017-03-04T10:30:00Z,30.2583,-88.2131,55.37,1111122 
DISL,ioos:station:DISL:KATA:1,2017-03-04T11:00:00Z,30.2583,-88.2131,48.58,1111122 
DISL,ioos:station:DISL:KATA:1,2017-03-04T11:30:00Z,30.2583,-88.2131,53.61,1111122 
DISL,ioos:station:DISL:KATA:1,2017-03-04T12:00:00Z,30.2583,-88.2131,50.59,1111122 
DISL,ioos:station:DISL:KATA:1,2017-03-04T12:30:00Z,30.2583,-88.2131,59.22,1111122 
DISL,ioos:station:DISL:KATA:1,2017-03-04T13:00:00Z,30.2583,-88.2131,57.66,1111122 
DISL,ioos:station:DISL:KATA:1,2017-03-04T13:30:00Z,30.2583,-88.2131,52.73,1111122 
DISL,ioos:station:DISL:KATA:1,2017-03-04T14:00:00Z,30.2583,-88.2131,56.56,1111122 
DISL,ioos:station:DISL:KATA:1,2017-03-04T14:30:00Z,30.2583,-88.2131,55.07,1111122 
DISL,ioos:station:DISL:KATA:1,2017-03-04T15:00:00Z,30.2583,-88.2131,60.73,1111122 
DISL,ioos:station:DISL:KATA:1,2017-03-04T15:30:00Z,30.2583,-88.2131,61.34,1111122 
DISL,ioos:station:DISL:KATA:1,2017-03-04T16:00:00Z,30.2583,-88.2131,64.22,1111122 
DISL,ioos:station:DISL:KATA:1,2017-03-04T16:30:00Z,30.2583,-88.2131,60.76,1111122 
DISL,ioos:station:DISL:KATA:1,2017-03-04T17:00:00Z,30.2583,-88.2131,64.43,1111122 
DISL,ioos:station:DISL:KATA:1,2017-03-04T17:30:00Z,30.2583,-88.2131,59.06,1111122 
DISL,ioos:station:DISL:KATA:1,2017-03-04T18:00:00Z,30.2583,-88.2131,57.47,1111122 
DISL,ioos:station:DISL:KATA:1,2017-03-04T18:30:00Z,30.2583,-88.2131,56.99,1111122 
DISL,ioos:station:DISL:KATA:1,2017-03-04T19:00:00Z,30.2583,-88.2131,55.09,1111122 
DISL,ioos:station:DISL:KATA:1,2017-03-04T19:30:00Z,30.2583,-88.2131,62.15,1111122 
DISL,ioos:station:DISL:KATA:1,2017-03-04T20:00:00Z,30.2583,-88.2131,57.03,1111122 
DISL,ioos:station:DISL:KATA:1,2017-03-04T20:30:00Z,30.2583,-88.2131,53.67,1111122 
DISL,ioos:station:DISL:KATA:1,2017-03-04T21:00:00Z,30.2583,-88.2131,52.99,1111122 
DISL,ioos:station:DISL:KATA:1,2017-03-04T21:30:00Z,30.2583,-88.2131,47.39,1111122 
DISL,ioos:station:DISL:KATA:1,2017-03-04T22:00:00Z,30.2583,-88.2131,48.84,1111122 
DISL,ioos:station:DISL:KATA:1,2017-03-04T22:30:00Z,30.2583,-88.2131,42.8,1111122 
DISL,ioos:station:DISL:KATA:1,2017-03-04T23:00:00Z,30.2583,-88.2131,51.32,1111122 
DISL,ioos:station:DISL:KATA:1,2017-03-04T23:30:00Z,30.2583,-88.2131,53.63,1111122 
DISL,ioos:station:DISL:KATA:1,2017-03-05T00:00:00Z,30.2583,-88.2131,48.71,1111122 
DISL,ioos:station:DISL:KATA:1,2017-03-05T00:30:00Z,30.2583,-88.2131,46.88,1111122 
DISL,ioos:station:DISL:KATA:1,2017-03-05T01:00:00Z,30.2583,-88.2131,47.93,1111122 
DISL,ioos:station:DISL:KATA:1,2017-03-05T01:30:00Z,30.2583,-88.2131,49.93,1111122 
DISL,ioos:station:DISL:KATA:1,2017-03-05T02:00:00Z,30.2583,-88.2131,52.07,1111122 
DISL,ioos:station:DISL:KATA:1,2017-03-05T02:30:00Z,30.2583,-88.2131,52.92,1111122 
DISL,ioos:station:DISL:KATA:1,2017-03-05T03:00:00Z,30.2583,-88.2131,53.8,1111122 
DISL,ioos:station:DISL:KATA:1,2017-03-05T03:30:00Z,30.2583,-88.2131,61.34,1111122 
DISL,ioos:station:DISL:KATA:1,2017-03-05T04:00:00Z,30.2583,-88.2131,64.36,1111122 
DISL,ioos:station:DISL:KATA:1,2017-03-05T04:30:00Z,30.2583,-88.2131,79.09,1111122 
DISL,ioos:station:DISL:KATA:1,2017-03-05T05:00:00Z,30.2583,-88.2131,79.5,1111122 
DISL,ioos:station:DISL:KATA:1,2017-03-05T05:30:00Z,30.2583,-88.2131,77.9,1111122 
DISL,ioos:station:DISL:KATA:1,2017-03-05T06:00:00Z,30.2583,-88.2131,76.24,1111122 
DISL,ioos:station:DISL:KATA:1,2017-03-05T06:30:00Z,30.2583,-88.2131,73.93,1111122 
DISL,ioos:station:DISL:KATA:1,2017-03-05T07:00:00Z,30.2583,-88.2131,73.18,1111122 
DISL,ioos:station:DISL:KATA:1,2017-03-05T07:30:00Z,30.2583,-88.2131,66.26,1111122 
DISL,ioos:station:DISL:KATA:1,2017-03-05T08:00:00Z,30.2583,-88.2131,58.45,1111122 
DISL,ioos:station:DISL:KATA:1,2017-03-05T08:30:00Z,30.2583,-88.2131,61.3,1111122 
DISL,ioos:station:DISL:KATA:1,2017-03-05T09:00:00Z,30.2583,-88.2131,66.4,1111122 
DISL,ioos:station:DISL:KATA:1,2017-03-05T09:30:00Z,30.2583,-88.2131,71.28,1111122 
DISL,ioos:station:DISL:KATA:1,2017-03-05T10:00:00Z,30.2583,-88.2131,70.84,1111122 
DISL,ioos:station:DISL:KATA:1,2017-03-05T10:30:00Z,30.2583,-88.2131,71.28,1111122 
DISL,ioos:station:DISL:KATA:1,2017-03-05T11:00:00Z,30.2583,-88.2131,73.76,1111122 
DISL,ioos:station:DISL:KATA:1,2017-03-05T11:30:00Z,30.2583,-88.2131,75.46,1111122 
DISL,ioos:station:DISL:KATA:1,2017-03-05T12:00:00Z,30.2583,-88.2131,76.95,1111122 
DISL,ioos:station:DISL:KATA:1,2017-03-05T12:30:00Z,30.2583,-88.2131,79.29,1111122 
DISL,ioos:station:DISL:KATA:1,2017-03-05T13:00:00Z,30.2583,-88.2131,82.9,1111122 
DISL,ioos:station:DISL:KATA:1,2017-03-05T13:30:00Z,30.2583,-88.2131,84.3,1111122 
DISL,ioos:station:DISL:KATA:1,2017-03-05T14:00:00Z,30.2583,-88.2131,87.0,1111122 
DISL,ioos:station:DISL:KATA:1,2017-03-05T14:30:00Z,30.2583,-88.2131,83.3,1111122 
DISL,ioos:station:DISL:KATA:1,2017-03-05T15:00:00Z,30.2583,-88.2131,82.6,1111122 
DISL,ioos:station:DISL:KATA:1,2017-03-05T15:30:00Z,30.2583,-88.2131,81.1,1111122 
DISL,ioos:station:DISL:KATA:1,2017-03-05T16:00:00Z,30.2583,-88.2131,81.3,1111122 
DISL,ioos:station:DISL:KATA:1,2017-03-05T16:30:00Z,30.2583,-88.2131,79.44,1111122 
DISL,ioos:station:DISL:KATA:1,2017-03-05T17:00:00Z,30.2583,-88.2131,80.5,1111122 
DISL,ioos:station:DISL:KATA:1,2017-03-05T17:30:00Z,30.2583,-88.2131,77.76,1111122 
DISL,ioos:station:DISL:KATA:1,2017-03-05T18:00:00Z,30.2583,-88.2131,78.7,1111122 
DISL,ioos:station:DISL:KATA:1,2017-03-05T18:30:00Z,30.2583,-88.2131,77.88,1111122 
DISL,ioos:station:DISL:KATA:1,2017-03-05T19:00:00Z,30.2583,-88.2131,77.95,1111122 
DISL,ioos:station:DISL:KATA:1,2017-03-05T19:30:00Z,30.2583,-88.2131,78.09,1111122 
DISL,ioos:station:DISL:KATA:1,2017-03-05T20:00:00Z,30.2583,-88.2131,79.31,1111122 
DISL,ioos:station:DISL:KATA:1,2017-03-05T20:30:00Z,30.2583,-88.2131,79.08,1111122 
DISL,ioos:station:DISL:KATA:1,2017-03-05T21:00:00Z,30.2583,-88.2131,81.9,1111122 
DISL,ioos:station:DISL:KATA:1,2017-03-05T21:30:00Z,30.2583,-88.2131,80.8,1111122 
DISL,ioos:station:DISL:KATA:1,2017-03-05T22:00:00Z,30.2583,-88.2131,81.2,1111122 
DISL,ioos:station:DISL:KATA:1,2017-03-05T22:30:00Z,30.2583,-88.2131,81.2,1111122 
DISL,ioos:station:DISL:KATA:1,2017-03-05T23:00:00Z,30.2583,-88.2131,82.2,1111122 
DISL,ioos:station:DISL:KATA:1,2017-03-05T23:30:00Z,30.2583,-88.2131,83.8,1111122 
DISL,ioos:station:DISL:KATA:1,2017-03-06T00:00:00Z,30.2583,-88.2131,83.1,1111122 
DISL,ioos:station:DISL:KATA:1,2017-03-06T00:30:00Z,30.2583,-88.2131,83.7,1111122 
DISL,ioos:station:DISL:KATA:1,2017-03-06T01:00:00Z,30.2583,-88.2131,81.3,1111122 
DISL,ioos:station:DISL:KATA:1,2017-03-06T01:30:00Z,30.2583,-88.2131,79.57,1111122 
DISL,ioos:station:DISL:KATA:1,2017-03-06T02:00:00Z,30.2583,-88.2131,78.69,1111122 
DISL,ioos:station:DISL:KATA:1,2017-03-06T02:30:00Z,30.2583,-88.2131,78.89,1111122 
DISL,ioos:station:DISL:KATA:1,2017-03-06T03:00:00Z,30.2583,-88.2131,79.0,1111122 
DISL,ioos:station:DISL:KATA:1,2017-03-06T03:30:00Z,30.2583,-88.2131,81.3,1111122 
DISL,ioos:station:DISL:KATA:1,2017-03-06T04:00:00Z,30.2583,-88.2131,81.2,1111122 
DISL,ioos:station:DISL:KATA:1,2017-03-06T04:30:00Z,30.2583,-88.2131,81.3,1111122 
DISL,ioos:station:DISL:KATA:1,2017-03-06T05:00:00Z,30.2583,-88.2131,80.0,1111122 
DISL,ioos:station:DISL:KATA:1,2017-03-06T05:30:00Z,30.2583,-88.2131,81.0,1111122 
DISL,ioos:station:DISL:KATA:1,2017-03-06T06:00:00Z,30.2583,-88.2131,80.8,1111122 
DISL,ioos:station:DISL:KATA:1,2017-03-06T06:30:00Z,30.2583,-88.2131,80.1,1111122 
DISL,ioos:station:DISL:KATA:1,2017-03-06T07:00:00Z,30.2583,-88.2131,81.2,1111122 
DISL,ioos:station:DISL:KATA:1,2017-03-06T07:30:00Z,30.2583,-88.2131,81.0,1111122 
DISL,ioos:station:DISL:KATA:1,2017-03-06T08:00:00Z,30.2583,-88.2131,80.2,1111122 
DISL,ioos:station:DISL:KATA:1,2017-03-06T08:30:00Z,30.2583,-88.2131,81.4,1111122 
DISL,ioos:station:DISL:KATA:1,2017-03-06T09:00:00Z,30.2583,-88.2131,80.9,1111122 
DISL,ioos:station:DISL:KATA:1,2017-03-06T09:30:00Z,30.2583,-88.2131,81.3,1111122 
DISL,ioos:station:DISL:KATA:1,2017-03-06T10:00:00Z,30.2583,-88.2131,83.2,1111122 
DISL,ioos:station:DISL:KATA:1,2017-03-06T10:30:00Z,30.2583,-88.2131,84.6,1111122 
DISL,ioos:station:DISL:KATA:1,2017-03-06T11:00:00Z,30.2583,-88.2131,85.3,1111122 
DISL,ioos:station:DISL:KATA:1,2017-03-06T11:30:00Z,30.2583,-88.2131,86.7,1111122 
DISL,ioos:station:DISL:KATA:1,2017-03-06T12:00:00Z,30.2583,-88.2131,87.5,1111122 
DISL,ioos:station:DISL:KATA:1,2017-03-06T12:30:00Z,30.2583,-88.2131,85.4,1111122 
DISL,ioos:station:DISL:KATA:1,2017-03-06T13:00:00Z,30.2583,-88.2131,84.4,1111122 
DISL,ioos:station:DISL:KATA:1,2017-03-06T13:30:00Z,30.2583,-88.2131,81.4,1111122 
DISL,ioos:station:DISL:KATA:1,2017-03-06T14:00:00Z,30.2583,-88.2131,81.7,1111122 
DISL,ioos:station:DISL:KATA:1,2017-03-06T14:30:00Z,30.2583,-88.2131,81.5,1111122 
DISL,ioos:station:DISL:KATA:1,2017-03-06T15:00:00Z,30.2583,-88.2131,82.2,1111122 
DISL,ioos:station:DISL:KATA:1,2017-03-06T15:30:00Z,30.2583,-88.2131,81.7,1111122 
DISL,ioos:station:DISL:KATA:1,2017-03-06T16:00:00Z,30.2583,-88.2131,80.9,1111122 
DISL,ioos:station:DISL:KATA:1,2017-03-06T16:30:00Z,30.2583,-88.2131,80.7,1111122 
DISL,ioos:station:DISL:KATA:1,2017-03-06T17:00:00Z,30.2583,-88.2131,80.4,1111122 
DISL,ioos:station:DISL:KATA:1,2017-03-06T17:30:00Z,30.2583,-88.2131,80.8,1111122 
DISL,ioos:station:DISL:KATA:1,2017-03-06T18:00:00Z,30.2583,-88.2131,79.27,1111122 
DISL,ioos:station:DISL:KATA:1,2017-03-06T18:30:00Z,30.2583,-88.2131,80.5,1111122 
DISL,ioos:station:DISL:KATA:1,2017-03-06T19:00:00Z,30.2583,-88.2131,80.3,1111122 
DISL,ioos:station:DISL:KATA:1,2017-03-06T19:30:00Z,30.2583,-88.2131,80.3,1111122 
DISL,ioos:station:DISL:KATA:1,2017-03-06T20:00:00Z,30.2583,-88.2131,80.0,1111122 
DISL,ioos:station:DISL:KATA:1,2017-03-06T20:30:00Z,30.2583,-88.2131,80.9,1111122 
DISL,ioos:station:DISL:KATA:1,2017-03-06T21:00:00Z,30.2583,-88.2131,82.5,1111122 
DISL,ioos:station:DISL:KATA:1,2017-03-06T21:30:00Z,30.2583,-88.2131,82.6,1111122 
DISL,ioos:station:DISL:KATA:1,2017-03-06T22:00:00Z,30.2583,-88.2131,85.4,1111122 
DISL,ioos:station:DISL:KATA:1,2017-03-06T22:30:00Z,30.2583,-88.2131,85.6,1111122 
DISL,ioos:station:DISL:KATA:1,2017-03-06T23:00:00Z,30.2583,-88.2131,86.8,1111122 
DISL,ioos:station:DISL:KATA:1,2017-03-06T23:30:00Z,30.2583,-88.2131,88.7,1111122 
DISL,ioos:station:DISL:KATA:1,2017-03-07T00:00:00Z,30.2583,-88.2131,86.5,1111122 